GFSSW_sfc_rhum_093.txt.gz
RH
85 87 88 88 87 87 87 87 86 86 86 86 86 86 87 88 86 40 15 21 23 73 66 24 22 22 20 21 19 17 23 18 13 12 10 7 7 7 11 12 18 18 19 22 27
87 89 89 88 87 87 87 87 86 86 86 87 86 87 88 88 26 11 34 69 74 75 26 21 21 18 17 17 15 18 19 16 10 10 10 9 8 7 9 12 20 20 23 24 28
90 89 89 89 87 87 86 86 86 86 86 86 86 86 88 67 15 9 64 69 76 72 15 14 12 14 15 11 11 12 16 12 11 10 9 9 8 7 8 10 12 19 26 28 29
90 90 90 90 89 88 86 86 85 85 86 86 84 85 85 22 10 19 65 74 72 29 15 12 11 14 13 9 6 8 7 7 7 6 8 10 8 8 8 8 7 10 22 28 30
92 92 91 90 90 89 87 86 86 86 86 85 84 85 47 14 8 24 73 67 28 30 12 12 12 12 12 7 5 6 6 5 4 5 6 8 9 8 8 6 6 10 23 27 28
91 92 92 91 90 90 88 86 86 87 86 85 84 84 20 8 5 10 16 24 17 17 11 10 10 8 9 8 8 6 6 6 5 4 5 6 7 6 7 6 8 15 20 22 25
90 92 92 91 90 89 87 85 87 86 86 84 83 38 11 7 6 9 12 14 12 11 10 7 7 8 8 8 7 8 9 7 6 5 4 4 6 6 6 6 6 14 18 21 23
87 90 91 90 90 89 85 86 86 83 82 75 78 22 10 5 4 5 6 8 7 4 5 6 5 6 8 8 7 8 7 8 6 5 5 5 7 4 4 4 7 9 14 19 22
84 89 90 90 90 89 85 87 83 74 73 71 37 17 7 12 5 5 5 5 4 4 6 6 7 6 6 8 9 8 7 7 7 5 6 6 7 5 4 4 6 7 7 15 20
84 85 88 89 90 87 86 84 61 62 58 24 16 13 7 7 5 5 4 6 5 5 9 10 9 8 7 8 10 9 7 6 7 6 6 7 7 5 5 4 5 5 6 10 18
90 86 87 89 89 86 62 15 12 15 8 8 8 8 6 6 5 5 5 5 6 7 8 7 10 10 8 8 8 8 8 9 7 5 8 8 8 8 6 5 5 6 6 8 18
91 88 87 89 89 86 53 10 14 14 12 6 7 7 6 6 7 6 5 6 7 8 6 6 8 7 7 7 6 6 8 9 8 6 7 7 9 7 7 7 5 5 6 8 15
91 90 90 90 85 53 12 14 12 12 13 7 6 6 6 5 6 6 5 6 7 8 7 7 5 5 6 6 7 7 9 9 8 8 7 8 11 10 7 6 5 5 6 7 14
91 90 91 88 58 18 13 14 11 12 14 9 7 6 5 5 7 5 5 6 6 7 7 7 5 6 6 6 5 8 6 6 7 8 10 8 11 12 9 8 7 6 5 6 14
93 92 90 90 37 17 19 13 11 12 16 8 6 5 5 6 6 6 5 6 8 7 7 8 6 6 8 6 6 7 5 6 7 8 9 10 11 11 9 10 8 6 6 5 11
92 90 87 45 28 18 13 12 13 15 16 9 6 7 6 5 6 5 6 6 7 9 8 8 6 7 6 5 5 5 7 8 8 8 11 11 9 10 8 9 8 6 6 8 10
91 89 72 26 16 12 12 13 14 12 10 10 8 7 6 7 6 7 8 8 10 16 13 9 8 6 6 7 6 6 8 11 13 12 11 9 8 10 8 7 7 9 12 15 13
88 87 58 20 16 14 14 13 21 11 10 9 9 7 8 8 7 7 8 8 8 11 13 13 13 9 8 9 11 10 9 11 21 13 11 10 12 9 7 7 9 12 14 14 14
89 19 15 14 16 16 14 15 14 13 11 10 8 10 10 9 8 8 8 8 9 12 19 16 14 10 8 8 8 10 10 6 9 10 10 9 10 10 8 8 8 9 12 16 22
35 16 11 12 14 15 13 21 12 10 11 10 13 11 12 11 10 10 9 8 9 11 11 14 18 11 10 8 8 12 9 10 10 20 20 12 15 12 16 13 10 9 12 25 30
33 14 14 9 12 15 14 13 12 12 12 13 14 13 13 15 12 12 10 8 11 12 11 11 15 17 13 11 11 12 13 23 18 20 31 18 13 14 16 27 21 20 25 35 40
18 16 12 10 16 13 12 14 37 11 13 13 14 14 14 14 16 14 13 13 11 12 15 13 16 20 15 10 11 10 45 51 22 69 58 40 25 36 36 16 25 29 43 52 58
21 14 11 11 16 13 14 11 12 12 13 15 16 15 15 18 22 16 15 12 11 13 18 18 18 20 17 11 22 23 28 50 22 22 36 45 58 34 50 62 39 50 61 68 72
22 18 14 14 13 17 16 16 14 13 14 14 16 16 18 19 18 21 18 13 13 14 47 28 20 26 21 22 16 20 20 16 16 21 38 41 42 44 73 74 44 54 57 60 64
22 20 21 16 16 18 18 16 14 14 14 15 18 17 18 24 22 20 17 16 14 31 19 18 30 25 22 17 14 14 14 12 14 19 56 39 61 45 79 77 57 57 61 63 65
26 24 18 18 22 21 27 18 15 12 14 15 19 16 18 24 21 24 21 22 22 17 18 19 33 29 27 18 15 16 13 12 12 12 20 20 26 35 55 49 56 64 59 58 74
24 23 24 31 20 20 16 16 16 15 14 13 13 16 19 16 20 19 16 16 16 20 25 30 32 35 33 20 18 20 16 17 17 20 21 31 48 51 49 55 80 85 80 74 68

GFSSW_sfc_rhum_096.txt.gz
RH
88 89 90 90 90 89 88 88 87 87 87 87 87 87 88 89 86 44 20 22 22 68 57 14 19 24 19 20 18 17 26 24 26 59 18 8 8 6 8 14 13 16 21 26 27
90 91 90 90 90 90 89 88 88 87 87 88 87 87 88 89 29 12 24 70 69 69 19 15 21 19 19 16 14 16 21 19 13 29 14 10 9 7 7 9 17 21 22 25 27
91 92 91 90 90 90 90 88 88 87 87 87 87 87 88 75 18 7 57 72 72 55 11 12 14 14 15 12 10 12 14 11 9 8 8 8 8 8 7 9 14 24 27 29 30
89 90 91 91 90 90 90 89 87 87 87 88 85 85 86 31 13 12 67 73 77 21 18 14 13 12 12 13 8 8 6 6 5 4 4 5 6 8 9 8 6 19 25 28 31
84 89 90 90 90 90 90 90 88 87 88 87 84 85 47 15 8 24 72 62 23 24 22 14 12 11 12 10 8 7 6 5 4 4 4 5 6 8 8 7 6 15 24 28 29
81 87 89 90 90 90 90 89 87 87 88 86 84 86 24 11 5 17 16 16 10 18 17 10 11 10 10 9 9 7 7 6 5 6 6 5 4 4 6 6 6 14 24 26 27
82 84 88 89 90 89 89 87 87 88 86 83 82 42 17 11 4 6 9 14 10 11 12 9 8 9 8 9 7 7 8 8 7 6 6 5 5 5 4 5 6 7 16 23 27
86 87 87 87 88 88 88 86 87 84 84 80 76 26 16 5 4 4 6 9 9 9 9 7 6 6 6 6 8 8 8 9 6 5 5 5 8 5 4 3 5 6 12 18 24
90 90 89 87 87 87 86 88 84 79 72 69 38 22 12 15 5 4 4 4 5 6 6 4 5 7 7 7 7 8 10 9 7 4 5 6 8 6 4 4 5 5 8 12 20
90 90 89 88 88 87 88 81 62 57 52 24 19 16 10 6 5 4 4 4 5 5 5 6 9 10 8 8 11 9 8 7 8 6 6 6 7 6 6 5 6 5 7 8 9
90 90 89 89 88 88 69 23 13 17 14 9 8 8 6 5 5 5 4 5 5 6 8 7 10 12 10 8 8 8 8 9 8 6 7 8 8 7 7 6 6 7 8 8 8
92 91 90 90 90 87 55 11 13 12 14 6 6 6 5 5 6 5 5 6 7 8 7 7 8 6 6 6 8 8 8 8 6 6 6 8 8 7 6 7 6 6 8 7 6
94 94 92 91 89 59 13 12 10 9 14 9 5 5 5 4 5 5 5 6 7 8 7 8 6 5 5 5 6 6 7 7 8 7 6 7 9 10 7 7 8 7 7 6 8
91 94 92 90 58 16 14 11 9 9 15 9 6 6 5 5 6 4 4 6 6 7 6 7 5 5 6 6 6 8 5 5 6 7 8 6 10 14 8 8 8 6 6 6 7
92 92 91 92 42 16 14 10 9 10 20 8 6 4 4 5 5 5 5 6 8 8 7 8 6 7 8 7 6 7 5 6 7 8 8 8 9 11 10 12 10 8 7 6 8
91 90 89 40 36 14 9 9 11 17 18 8 5 6 5 5 5 5 5 6 7 8 8 9 6 7 7 7 6 6 7 7 7 7 12 11 9 10 9 11 9 8 8 10 14
91 89 82 31 16 10 10 13 18 17 9 9 8 6 6 6 6 6 7 8 9 14 14 11 8 6 6 8 7 8 10 14 15 12 13 9 9 13 9 7 8 12 17 14 12
90 88 52 22 15 11 13 16 24 11 10 7 7 7 7 7 6 6 7 8 8 9 12 15 15 9 9 10 11 11 11 14 24 14 12 11 16 12 11 10 8 12 16 14 12
91 20 20 16 14 13 16 18 15 12 9 9 7 9 8 8 8 7 8 8 8 10 18 17 15 9 8 8 9 11 13 10 14 11 11 9 11 13 24 14 14 14 17 16 20
53 24 14 10 10 13 16 23 11 10 9 9 12 11 12 10 10 9 9 8 8 9 11 15 19 10 9 10 9 9 9 17 16 32 30 27 26 55 52 44 39 48 54 61 55
41 19 13 9 8 14 17 13 11 9 11 11 12 13 11 12 12 11 10 8 10 11 11 11 16 17 12 13 13 14 21 24 23 27 40 45 25 35 36 37 47 51 65 66 49
21 20 12 10 14 14 15 13 33 9 10 12 12 13 13 12 14 15 13 10 10 11 14 15 16 20 15 10 10 13 24 26 27 29 25 35 27 32 36 32 55 66 73 85 53
29 19 10 10 16 14 13 12 10 10 10 12 14 13 13 16 21 16 15 11 10 12 20 18 20 23 18 13 13 16 15 21 33 27 32 83 74 28 41 46 67 71 78 79 81
30 21 14 14 13 16 16 14 14 10 12 11 12 14 16 18 16 20 17 12 11 12 45 29 22 28 27 26 19 22 17 14 18 29 33 53 50 32 45 48 57 66 64 86 76
31 22 19 22 15 20 19 17 15 14 11 12 16 15 16 22 19 21 17 15 14 32 18 18 28 24 21 19 18 19 17 14 15 15 19 18 30 56 68 58 57 75 89 80 70
35 27 21 21 21 20 26 19 16 13 12 12 15 12 15 21 22 21 19 23 24 18 18 16 29 28 29 21 19 18 16 14 13 13 12 19 64 81 65 68 67 81 71 85 79
26 24 25 34 21 20 19 17 14 14 14 12 12 13 15 15 14 16 16 18 17 19 22 24 28 35 36 24 22 24 40 32 34 36 48 35 62 52 52 64 73 71 71 70 68

GFSSW_sfc_rhum_102.txt.gz
RH
80 84 86 86 86 90 91 91 90 90 89 88 89 90 91 92 89 75 30 22 34 72 54 23 28 22 26 40 39 35 50 52 50 43 33 19 20 16 17 32 30 32 40 39 42
85 81 82 85 88 89 91 92 91 92 91 91 90 90 91 92 66 35 31 60 66 74 16 20 20 24 37 41 37 40 47 37 35 34 34 26 22 22 17 30 40 40 38 37 55
88 88 87 87 85 88 89 90 91 91 91 90 88 88 91 89 39 17 66 68 78 57 15 14 15 23 35 38 31 29 31 20 17 20 26 28 24 12 10 36 42 48 44 40 55
89 89 88 86 86 88 89 89 90 90 91 90 88 88 91 71 10 18 64 76 79 34 19 17 19 26 31 30 21 22 16 16 12 10 12 18 9 9 10 9 35 39 40 40 46
90 90 89 89 89 89 89 90 90 90 91 89 88 88 82 43 18 29 64 64 37 26 23 23 36 37 31 23 18 20 15 12 11 11 10 9 10 11 10 8 34 36 39 42 42
91 92 91 90 90 90 90 90 90 90 89 87 86 89 52 24 11 37 30 33 25 27 30 26 30 27 21 20 18 15 12 10 10 10 10 10 9 11 8 8 35 39 42 42 42
92 91 92 93 92 90 90 90 90 90 87 87 85 66 43 23 13 30 26 21 18 23 26 21 22 15 13 13 12 11 11 10 8 10 10 10 10 10 8 8 24 39 41 42 43
90 89 90 91 92 91 90 90 89 86 86 85 84 71 29 16 17 20 24 24 20 18 19 18 20 12 11 12 12 13 15 16 10 8 8 10 14 10 9 10 36 39 40 43 44
88 88 89 90 91 91 90 90 86 82 81 81 70 58 31 23 8 6 13 12 11 18 18 11 17 12 12 18 21 20 19 16 12 8 10 12 14 10 10 10 16 42 42 42 44
88 88 90 90 90 90 89 88 78 78 66 48 33 38 23 15 8 7 7 6 7 9 10 11 14 15 20 23 28 21 20 17 15 10 11 11 11 10 11 11 10 22 42 42 43
89 90 90 91 90 87 94 43 23 22 28 34 28 23 16 8 7 8 8 9 10 11 16 14 14 16 14 18 16 18 18 18 14 11 14 12 13 11 11 12 11 11 34 43 42
89 89 90 90 87 89 90 21 22 18 24 15 14 13 11 9 8 8 7 9 12 12 17 15 16 12 12 13 18 19 20 17 13 10 11 11 11 11 12 12 11 11 12 28 40
88 89 90 91 90 58 42 22 19 18 25 16 13 11 8 7 8 8 8 10 11 14 14 16 12 10 11 11 12 13 15 14 12 12 10 14 14 12 9 10 10 12 13 14 18
87 89 91 93 44 59 37 20 19 18 34 21 16 8 7 8 9 6 7 8 12 13 11 14 10 11 12 13 14 19 11 11 11 13 16 13 17 14 14 15 26 46 51 60 62
86 88 91 94 72 45 28 33 26 22 34 16 11 8 8 8 10 8 7 10 11 10 16 14 13 13 14 14 12 14 12 13 14 18 18 14 18 22 39 51 46 47 51 59 70
86 88 88 82 85 51 44 33 24 32 33 13 8 10 11 9 8 10 11 10 11 14 14 14 13 14 15 12 14 14 16 20 23 25 29 19 20 46 62 56 47 46 54 61 70
86 87 92 68 27 36 33 30 34 32 17 13 14 12 12 11 10 9 10 13 14 20 22 18 20 15 12 16 15 17 23 32 35 34 32 22 28 60 49 47 47 51 57 67 71
86 92 88 67 67 42 35 33 38 23 16 14 13 13 15 13 12 10 13 12 16 21 29 28 25 17 14 20 20 21 31 34 40 41 32 28 33 50 38 43 43 47 44 66 79
90 72 59 47 54 43 35 40 34 21 15 14 13 16 18 14 13 13 15 15 19 22 26 29 26 17 15 16 19 20 25 25 38 56 43 40 36 41 41 41 45 47 56 61 84
94 78 58 32 38 32 35 46 27 16 16 16 20 20 24 20 19 19 19 18 18 17 22 30 31 26 19 17 18 21 20 35 47 54 59 44 43 59 43 49 55 52 60 77 78
74 52 31 26 23 30 36 35 22 14 15 19 23 23 22 24 23 24 23 18 16 18 22 45 35 29 24 27 26 26 28 43 44 50 53 64 48 50 53 59 63 66 72 82 79
81 52 32 25 30 43 37 28 30 17 13 16 21 24 24 24 28 27 26 23 16 19 27 29 36 44 30 23 22 23 36 47 52 48 50 51 46 52 57 64 65 75 81 82 78
90 74 37 25 35 35 31 26 22 22 18 20 20 19 23 27 32 27 24 18 18 22 30 36 41 48 45 36 28 35 28 35 48 62 56 67 60 52 73 78 72 77 88 80 91
85 70 47 42 42 52 42 35 29 21 18 18 19 22 23 28 31 31 27 21 21 22 60 43 46 45 48 39 37 33 26 27 36 50 47 58 57 68 81 87 89 90 88 88 89
91 74 52 56 51 49 54 38 31 29 23 23 22 22 27 36 35 36 31 31 25 49 32 31 40 44 37 33 28 27 28 38 55 65 74 72 74 82 88 90 94 94 91 77 80
74 80 68 65 56 49 58 42 35 29 30 25 30 21 23 33 36 34 34 40 36 31 39 38 38 52 42 29 29 33 46 50 55 59 69 72 82 80 79 76 81 91 83 88 93
82 74 76 72 60 58 53 42 34 31 26 23 24 27 26 26 22 24 26 27 29 32 32 39 42 48 44 33 37 52 61 54 68 73 84 89 79 80 78 76 90 92 93 92 92

GFSSW_sfc_rhum_105.txt.gz
RH
85 85 86 87 88 89 89 88 88 88 88 88 89 90 90 92 91 83 27 19 37 76 63 47 36 28 28 40 45 40 61 60 52 48 29 20 25 21 19 34 34 38 42 48 61
86 86 87 87 87 90 91 91 91 90 89 89 90 89 90 92 74 41 35 62 72 78 18 22 24 28 40 44 47 53 60 42 37 39 38 29 28 27 26 34 40 43 46 58 63
88 90 89 87 86 88 90 91 91 91 90 89 89 89 90 93 34 10 75 68 77 65 15 16 18 28 40 43 39 37 42 31 24 22 28 34 28 24 16 42 46 48 52 62 65
90 89 89 90 89 88 88 89 90 91 90 89 89 89 90 79 10 19 75 78 80 32 16 16 17 24 32 35 27 30 22 20 18 14 13 22 24 10 11 16 20 42 48 60 63
88 88 88 89 90 90 88 89 91 91 90 89 89 88 86 37 17 36 71 74 38 23 20 22 32 35 43 31 23 22 18 14 13 12 12 12 12 13 11 18 38 41 49 59 61
84 85 87 87 87 90 91 91 91 92 89 89 88 88 52 17 9 37 31 27 22 29 27 26 35 33 30 20 21 17 13 11 11 9 10 12 10 12 9 18 42 43 46 54 62
90 90 89 89 90 90 90 91 90 89 89 88 86 69 45 13 16 35 22 20 24 25 28 28 25 24 18 12 15 14 13 12 10 11 11 13 11 11 10 11 28 44 44 46 54
91 90 89 90 90 90 90 91 89 88 87 86 85 74 23 16 19 24 30 27 26 24 22 20 22 21 12 12 15 16 18 17 12 12 10 11 15 12 11 11 27 44 45 46 48
90 89 88 89 89 89 90 91 87 82 82 83 72 54 27 29 16 16 24 22 22 24 23 14 18 21 14 19 22 23 20 19 15 12 14 16 15 12 10 12 47 48 47 47 48
89 88 88 88 88 88 91 88 84 81 70 55 38 36 23 16 12 8 16 18 8 10 12 17 17 19 21 21 25 25 24 21 18 15 14 15 14 12 11 12 19 50 48 48 48
88 87 87 87 88 88 89 38 24 23 30 27 34 27 19 15 10 8 8 8 10 11 15 16 15 16 14 17 15 22 23 23 18 15 20 15 12 12 11 16 49 36 54 50 49
87 86 87 88 88 90 78 22 25 21 25 18 17 17 14 13 12 8 8 10 14 13 16 15 17 12 14 15 17 20 23 22 19 15 16 12 12 12 16 40 47 57 64 66 52
87 86 88 90 92 56 53 27 26 37 27 18 16 15 12 12 11 9 8 11 12 16 15 16 12 12 13 14 16 20 22 18 14 14 15 16 17 19 32 32 37 45 59 67 74
87 85 88 92 43 60 37 33 37 22 35 20 17 12 9 9 10 7 8 9 13 12 14 15 13 14 18 19 16 30 15 13 16 19 23 16 23 20 44 40 38 45 59 68 76
85 83 88 93 78 38 31 41 35 23 32 18 13 9 10 10 10 9 9 11 12 13 14 16 15 16 16 16 16 18 15 16 20 23 26 21 23 30 55 44 47 45 56 66 70
82 81 88 84 90 58 46 38 25 31 32 14 10 10 12 11 9 10 11 10 12 16 18 16 15 16 18 14 18 16 20 25 30 30 32 26 25 29 56 50 54 47 57 69 70
80 84 93 73 28 51 42 31 33 34 19 16 15 14 15 13 11 11 13 15 15 31 20 20 21 17 15 20 20 20 30 39 37 40 38 29 33 41 48 51 49 54 56 71 76
82 91 88 73 77 52 35 32 39 26 20 15 16 16 16 16 13 12 13 16 20 22 31 29 25 18 16 24 24 27 32 37 56 50 42 34 40 42 43 46 46 49 57 69 76
89 72 67 54 68 50 30 37 33 27 16 16 16 22 22 19 18 18 20 24 22 25 25 30 26 20 20 18 21 23 30 26 43 59 49 44 35 36 45 48 52 52 60 71 78
93 82 52 44 44 29 33 45 33 22 16 18 24 24 25 21 22 24 23 20 20 20 22 28 32 29 21 18 20 32 26 44 50 55 62 48 47 47 47 54 57 64 75 80 80
76 52 34 39 27 29 34 36 26 19 19 20 22 27 27 27 29 31 28 22 18 21 27 41 34 29 26 29 34 32 40 46 49 55 59 66 54 51 64 62 62 64 78 82 82
75 50 35 30 33 53 37 33 33 21 19 19 21 26 28 30 32 29 32 26 21 21 31 43 40 44 33 28 26 28 41 48 55 54 56 59 54 60 78 70 69 70 79 83 81
86 83 50 33 48 44 41 31 28 26 24 21 21 24 25 28 32 32 28 22 22 26 34 41 42 49 42 35 30 37 34 41 51 65 60 70 57 63 79 87 88 88 90 89 92
83 68 56 51 53 60 50 38 32 24 25 22 22 24 28 31 32 35 32 27 27 34 55 46 49 43 48 39 38 39 32 30 53 61 60 60 56 59 80 82 91 95 94 89 86
90 78 72 68 60 63 64 41 36 37 28 27 27 25 33 39 36 36 32 29 24 46 34 31 40 44 39 35 36 34 32 34 59 54 71 65 78 71 83 84 84 94 90 88 92
67 91 82 82 70 56 60 54 44 39 38 32 33 28 28 34 31 36 36 45 31 36 37 41 42 50 42 29 30 34 31 44 55 59 72 74 82 80 77 77 79 91 93 96 90
95 81 82 82 71 64 62 55 44 42 37 30 28 30 33 26 24 22 24 26 26 29 33 36 41 45 47 36 43 48 45 54 59 71 78 92 76 76 85 82 86 92 96 97 90

GFSSW_sfc_rhum_108.txt.gz
RH
87 87 88 89 89 89 89 88 88 88 88 86 87 89 90 91 91 87 30 20 36 69 65 62 49 42 34 42 51 50 69 65 54 52 36 30 33 26 24 37 41 43 54 54 72
87 87 87 88 90 91 91 91 90 89 87 87 88 89 90 92 81 44 39 60 74 75 39 32 29 30 40 44 52 60 70 49 40 42 37 28 29 25 31 34 42 46 59 66 75
83 83 84 85 85 86 89 90 90 89 88 88 89 89 90 94 39 6 71 63 78 65 20 19 22 32 43 49 46 50 51 39 29 26 25 29 21 24 29 28 42 45 70 73 79
85 84 83 83 84 84 85 86 88 88 88 88 88 88 90 87 15 18 75 78 73 40 16 16 19 25 32 37 32 37 29 27 20 16 14 14 19 13 19 14 28 39 64 72 80
89 88 87 87 87 87 88 88 88 89 88 87 87 89 89 31 15 52 77 76 49 23 17 21 26 32 45 36 28 27 20 16 13 13 13 14 13 14 12 11 12 38 62 69 74
90 89 89 88 88 89 90 90 91 88 87 87 87 88 50 13 10 46 42 28 25 23 24 30 35 36 33 24 19 18 16 13 13 13 13 13 11 13 12 32 42 51 62 64 68
90 88 87 86 86 87 89 90 90 90 89 88 88 76 37 8 20 38 27 21 23 29 32 31 34 26 21 16 14 14 15 14 13 14 12 13 12 13 12 12 15 52 60 63 65
89 87 85 85 85 87 89 91 90 88 87 86 85 77 17 14 22 28 29 27 26 26 25 24 24 24 19 15 15 18 18 18 14 14 13 14 17 13 11 13 21 51 51 61 65
90 87 85 84 85 88 90 92 85 84 83 85 79 54 26 33 21 19 23 21 26 25 27 15 19 23 17 20 21 24 22 23 17 16 16 16 18 14 30 31 35 51 56 54 62
91 88 84 84 86 89 91 87 84 80 75 64 45 36 21 18 17 10 26 18 15 11 12 15 18 25 21 20 20 22 25 22 22 19 17 19 16 16 45 54 60 64 59 58 55
91 89 84 84 87 90 85 43 27 25 29 32 31 29 22 16 14 10 11 15 11 11 15 18 15 18 15 17 18 22 26 23 20 18 23 20 18 29 35 48 58 64 69 69 66
91 90 84 84 87 91 73 29 35 29 29 20 19 20 18 16 14 11 8 11 14 15 18 16 18 13 13 15 17 20 25 23 18 16 20 14 18 38 35 45 53 60 66 69 73
91 89 85 84 90 55 53 33 34 38 33 20 17 18 15 14 13 11 9 12 14 15 16 17 14 14 15 19 21 25 27 23 18 15 18 18 24 37 39 41 43 49 59 64 70
90 86 85 92 40 61 35 42 41 28 33 19 18 13 11 12 11 9 9 10 16 15 16 17 13 17 18 21 19 47 17 15 17 22 24 20 27 30 52 43 46 47 56 64 71
90 83 85 92 67 40 30 49 42 23 32 18 14 10 11 11 11 11 10 11 13 13 15 15 19 20 18 19 21 21 21 23 24 25 29 24 27 26 50 41 43 49 50 63 70
87 81 86 89 92 60 52 47 26 30 32 16 11 12 12 12 10 11 12 10 13 14 17 16 17 17 19 18 19 18 23 27 32 32 35 31 32 34 48 50 51 50 53 63 68
83 83 93 75 32 56 51 31 31 34 22 18 17 17 18 15 12 13 15 15 16 31 22 22 22 18 18 19 20 22 32 40 40 43 40 36 36 34 44 49 53 54 59 62 70
84 88 87 73 76 67 34 31 54 27 24 18 17 19 22 20 18 17 16 19 22 23 32 30 25 23 19 24 24 30 31 38 52 53 44 40 40 41 44 48 51 50 59 62 68
87 73 63 56 69 61 28 36 32 31 19 19 20 23 23 21 21 21 24 25 25 26 26 29 27 22 23 22 24 31 37 32 47 63 54 46 39 34 51 56 52 53 65 74 73
92 81 48 42 53 28 30 43 36 26 22 20 27 25 29 24 25 26 27 23 22 21 27 28 34 30 23 22 25 28 32 47 52 62 62 53 52 42 46 51 60 57 65 84 79
69 50 36 46 32 31 36 38 29 22 25 23 26 29 30 32 33 34 33 24 22 24 27 42 39 30 29 32 37 34 38 48 53 58 62 66 55 47 59 72 70 68 66 80 87
73 54 37 36 36 57 39 37 36 25 24 21 25 27 28 30 32 33 32 31 27 26 33 42 39 43 33 31 31 34 41 47 55 58 61 62 59 52 79 82 86 85 84 89 87
90 85 55 39 50 51 46 35 33 28 28 24 23 22 27 30 32 32 34 26 30 30 35 33 43 50 43 36 33 40 38 44 59 66 62 72 62 47 79 78 82 92 93 94 89
85 68 62 58 64 59 61 43 36 31 29 32 29 25 30 36 40 39 31 29 28 42 52 45 50 43 50 42 40 39 35 34 46 68 66 64 54 49 58 78 79 78 91 92 88
89 79 81 78 66 70 70 50 47 43 37 33 34 28 32 48 40 39 34 28 27 43 37 34 43 46 42 35 37 35 33 32 52 57 63 53 64 65 75 80 79 83 91 89 88
78 95 90 90 80 72 69 73 52 46 48 37 35 29 33 33 28 33 32 37 31 36 45 44 43 49 44 33 32 36 35 37 36 55 65 74 81 75 78 82 82 85 89 91 91
97 88 89 87 79 71 65 63 51 52 42 36 34 34 35 30 26 27 27 28 29 32 35 40 43 51 44 38 43 39 41 44 61 70 72 82 73 82 82 79 86 90 92 92 92

GFSSW_sfc_rhum_111.txt.gz
RH
82 83 83 84 83 83 85 86 86 86 86 86 86 87 88 88 89 70 21 19 25 72 63 45 29 28 38 42 39 40 37 34 28 24 19 13 13 12 12 17 30 32 35 38 54
85 85 85 84 85 87 88 87 86 86 86 86 87 87 87 89 60 29 33 53 71 73 33 23 24 25 29 28 36 37 36 30 25 18 15 12 13 12 13 11 23 34 46 53 59
88 88 88 84 83 86 88 89 86 87 87 87 88 87 89 85 27 4 68 62 72 57 23 15 18 19 27 32 36 38 31 27 16 14 13 10 10 10 12 10 8 14 45 58 60
90 89 88 85 84 85 87 87 86 87 87 87 86 88 89 66 13 10 76 73 74 28 14 14 20 23 25 27 26 28 22 22 12 9 9 10 9 8 9 8 7 9 39 55 60
91 90 89 87 87 86 86 87 87 87 86 85 86 87 70 16 7 45 72 67 43 21 12 12 15 20 25 23 20 19 15 10 10 9 10 10 10 9 8 8 9 14 40 52 55
91 91 89 87 85 86 88 90 91 87 86 85 86 87 31 7 10 37 33 26 20 15 14 17 16 23 22 18 12 12 11 9 10 10 11 9 8 8 9 10 11 31 38 45 52
91 91 90 87 85 86 89 90 90 90 89 88 87 66 20 5 18 26 20 14 17 16 16 18 25 20 14 14 10 10 11 10 8 8 8 9 8 12 26 16 17 33 45 49 53
91 91 90 86 84 86 90 91 90 88 87 86 85 52 11 10 21 20 17 18 17 16 15 17 19 15 13 10 11 11 11 10 10 10 9 10 12 16 30 30 30 38 43 50 53
91 91 90 86 85 87 90 90 86 84 83 83 48 30 15 27 16 14 14 13 19 17 17 13 13 15 12 12 11 14 11 12 12 11 12 10 14 20 29 36 41 41 46 45 49
92 91 90 86 84 88 91 84 81 76 66 56 40 24 15 13 12 10 18 12 9 9 10 12 13 15 14 11 12 12 12 11 14 11 11 13 24 26 28 33 42 46 47 48 47
92 91 89 85 84 88 61 29 18 17 17 14 17 22 17 11 10 9 15 14 8 9 10 12 9 10 10 12 11 12 14 15 12 12 13 18 25 27 29 26 33 37 46 48 53
92 91 88 83 85 89 46 22 25 24 20 16 16 15 14 12 9 7 8 8 9 10 11 10 11 10 11 11 12 14 15 15 13 12 12 14 24 25 26 29 31 33 38 45 48
92 91 87 83 89 45 33 26 27 20 20 16 13 12 10 10 9 8 7 8 9 11 10 12 10 11 11 13 14 15 15 15 14 12 11 13 15 25 25 25 27 26 30 32 46
92 90 86 90 46 42 24 29 30 22 19 13 11 10 10 9 8 7 6 8 10 10 12 11 10 12 13 14 13 14 14 14 13 14 14 14 15 20 27 26 27 28 29 30 38
92 89 86 93 48 25 22 34 24 19 22 12 9 8 7 7 7 7 7 7 10 10 12 12 12 13 13 14 14 12 15 15 16 16 16 17 15 18 30 27 26 28 34 33 38
91 88 86 68 59 36 36 32 20 21 21 12 9 9 8 7 7 7 8 8 9 10 12 12 12 12 13 13 14 15 16 20 20 16 18 21 19 15 21 28 28 27 34 40 41
90 86 82 59 25 42 37 22 21 23 17 14 12 11 12 14 10 10 10 13 11 14 18 16 15 13 14 14 14 14 14 15 19 18 16 23 23 21 24 30 32 34 36 43 41
90 88 74 54 46 52 24 22 28 20 16 13 13 13 15 15 15 13 13 16 17 15 18 18 19 16 16 16 17 19 18 18 26 21 18 29 25 24 29 31 33 34 36 43 45
88 47 37 32 46 34 20 20 24 21 18 17 13 16 17 16 16 16 18 16 16 17 18 19 18 16 16 16 16 22 25 20 28 35 30 24 26 22 32 35 34 33 36 42 50
65 46 33 32 37 20 20 33 24 19 18 15 17 16 20 20 18 18 18 16 16 15 17 21 23 19 18 16 19 19 22 24 26 36 36 27 34 23 26 28 41 42 42 49 58
44 34 27 31 24 23 23 25 22 18 18 17 16 19 20 20 21 21 22 18 20 18 19 19 23 21 20 21 22 22 21 30 27 31 28 32 26 28 31 42 52 50 51 60 58
51 27 30 28 27 34 27 26 37 21 20 16 16 18 17 19 21 22 24 25 23 19 20 24 21 25 22 21 22 23 26 24 27 34 33 34 28 22 34 45 55 55 55 55 58
66 54 36 28 29 31 32 26 25 24 22 22 18 18 17 21 25 24 24 22 23 23 24 24 27 27 28 22 22 24 24 27 32 37 34 35 27 28 36 45 47 55 52 54 59
60 44 41 40 43 36 37 32 29 25 23 25 22 18 21 25 28 27 22 20 20 26 51 39 31 32 27 28 25 29 24 23 25 27 24 28 30 29 31 43 49 53 55 58 65
58 56 63 49 43 44 41 37 33 31 28 25 23 20 22 28 26 24 21 19 19 39 27 25 31 31 21 24 24 22 22 20 24 25 34 25 31 35 48 58 56 57 62 64 64
63 69 58 58 62 47 51 43 37 35 33 27 25 24 22 26 24 26 22 24 22 23 25 29 31 34 28 21 21 23 22 22 21 22 25 31 44 46 55 53 52 59 63 66 68
68 64 65 70 57 47 41 44 39 39 32 29 32 27 24 25 26 20 18 22 23 25 30 31 31 35 30 25 24 30 25 23 26 34 40 50 43 50 52 53 59 67 70 76 80

GFSSW_sfc_rhum_114.txt.gz
RH
86 86 87 87 87 86 87 86 85 85 85 84 85 85 86 86 88 48 14 20 22 63 59 22 16 20 26 26 27 27 16 14 15 17 15 9 9 8 7 8 11 16 20 24 33
89 90 90 88 87 86 87 88 85 85 85 84 85 85 85 86 33 13 30 55 73 78 18 16 13 16 19 17 19 20 13 13 14 12 11 10 9 8 8 7 7 13 32 29 36
91 91 90 89 86 86 87 88 86 85 85 85 85 85 86 71 20 6 59 62 76 63 11 10 10 12 12 16 18 17 13 12 11 9 8 8 8 6 8 8 6 8 21 35 37
91 91 91 90 88 86 86 86 87 85 85 85 84 85 87 39 10 9 69 70 74 16 11 10 11 12 12 16 16 18 12 12 9 7 8 8 6 6 6 6 6 7 9 32 37
91 91 91 91 89 87 85 86 88 86 85 84 84 86 57 14 7 25 71 66 29 11 10 10 11 10 12 12 13 13 10 8 7 7 7 7 7 7 6 10 6 10 14 27 32
91 91 91 91 89 87 88 90 90 89 84 83 85 86 25 6 9 17 16 21 16 10 9 8 8 11 14 13 11 9 8 7 7 7 8 7 6 7 12 13 10 17 20 23 28
92 91 91 90 89 87 88 90 91 90 88 86 85 50 13 8 12 14 11 10 10 9 8 9 14 17 12 11 8 8 9 7 7 6 7 7 8 11 15 14 14 19 25 29 30
92 92 91 90 88 86 89 90 86 84 86 85 84 32 7 8 12 14 9 10 10 10 10 12 14 12 10 9 9 8 8 8 7 7 7 8 10 13 16 16 19 23 27 33 36
92 92 91 90 87 86 89 90 84 82 82 82 43 21 10 24 12 10 8 9 12 12 11 11 11 10 9 9 8 8 8 8 8 7 8 7 10 14 16 18 24 25 29 31 34
93 92 91 90 86 87 90 84 83 80 57 37 25 18 11 9 8 9 10 9 7 9 11 11 10 10 8 7 9 10 8 8 9 8 8 10 12 13 16 15 20 24 29 33 33
93 92 91 89 85 87 53 23 16 16 10 10 11 14 11 8 7 7 9 9 6 7 8 8 7 8 8 9 9 9 10 9 9 8 9 11 14 15 16 14 16 19 24 27 34
93 92 91 88 87 88 39 12 18 18 14 10 10 10 8 8 7 6 7 7 7 8 8 8 9 9 8 9 10 10 10 11 9 9 9 12 13 16 15 16 16 16 19 22 25
92 92 92 86 86 41 15 17 16 16 14 10 9 8 6 6 6 6 6 6 7 8 8 8 9 9 9 10 11 10 11 12 11 10 9 10 11 17 16 15 15 15 16 18 24
92 92 91 92 45 20 15 18 17 16 13 10 8 7 7 6 6 5 5 6 7 8 8 8 8 9 10 10 10 12 9 9 10 10 10 10 11 16 15 16 17 17 17 17 22
91 91 89 94 30 12 17 17 14 14 16 9 7 6 5 6 6 6 5 6 8 8 9 11 9 10 11 11 10 11 10 10 11 11 11 10 11 17 17 19 19 18 21 22 24
90 91 89 48 28 17 18 17 15 16 17 9 7 6 6 6 6 6 6 6 7 8 8 9 8 9 10 10 10 11 12 11 12 10 12 14 12 10 12 16 16 16 20 26 27
89 90 74 34 19 20 21 15 16 15 12 10 9 8 7 8 8 7 8 9 9 13 13 11 11 10 10 11 11 11 10 12 14 13 12 17 14 12 16 17 18 21 21 27 28
91 90 64 28 23 23 16 14 22 14 12 10 9 9 9 9 10 8 9 10 11 9 10 12 16 12 12 13 15 14 13 15 22 14 13 16 18 19 18 18 20 21 20 23 28
91 19 21 20 24 19 15 15 14 15 13 12 10 11 12 11 11 10 11 10 12 12 14 13 14 12 12 12 13 17 18 13 17 19 18 13 16 14 16 19 20 21 24 27 32
41 20 18 19 22 16 14 23 16 14 13 12 14 12 14 12 12 12 13 12 12 12 12 15 18 12 14 13 14 15 14 18 16 27 25 14 19 18 21 18 20 22 26 34 37
31 16 20 17 17 15 13 14 16 14 14 14 13 14 13 14 13 13 14 14 14 13 13 13 17 17 15 17 15 16 17 19 15 20 22 19 15 17 19 21 26 25 26 34 33
29 13 19 18 17 16 14 18 39 15 14 12 12 13 14 14 15 16 16 16 16 14 15 16 14 19 16 16 15 15 18 19 20 26 20 21 20 14 16 22 24 30 34 36 36
31 22 17 19 13 14 20 17 18 17 16 14 13 13 13 15 20 16 17 16 15 14 17 17 17 22 20 17 17 18 17 19 20 23 28 23 18 14 15 16 25 33 38 38 39
39 21 22 21 23 24 22 19 19 19 17 17 16 14 15 17 17 20 17 15 16 16 50 33 18 25 18 20 18 22 17 17 20 24 20 16 16 14 16 27 32 39 42 43 45
34 30 44 26 27 29 28 25 19 20 19 17 18 15 16 21 18 18 15 15 14 38 20 18 27 21 18 16 14 15 16 15 17 17 20 18 18 19 28 38 42 41 45 46 49
39 42 32 30 42 37 40 28 22 22 23 20 20 17 16 20 19 19 16 18 18 18 19 18 26 23 23 15 15 16 14 14 13 14 15 15 20 27 33 33 39 44 46 52 56
41 39 41 43 28 29 23 28 26 27 23 22 24 21 19 19 20 17 14 17 18 22 22 25 22 26 24 16 18 20 16 15 16 16 19 31 32 34 37 42 46 48 51 53 58

GFSSW_sfc_rhum_117.txt.gz
RH
88 90 90 90 89 87 86 85 83 82 84 84 83 84 83 84 88 40 11 21 20 66 70 17 12 12 14 16 14 12 12 11 10 12 10 8 9 8 6 6 7 11 14 20 24
90 91 91 90 90 88 88 87 86 83 84 83 84 84 83 85 31 12 33 61 70 66 21 14 10 10 12 10 10 12 12 9 8 8 8 7 7 7 7 7 7 8 19 22 24
91 91 91 90 89 89 88 88 88 87 83 83 84 83 84 71 20 8 58 66 67 56 10 9 7 8 9 8 10 10 11 8 8 6 6 6 6 5 6 8 6 6 13 25 25
91 91 91 91 90 89 88 86 87 84 84 84 82 83 83 39 12 16 58 67 72 20 11 8 8 8 8 10 9 12 8 7 6 5 5 5 5 5 5 7 5 6 6 23 27
92 91 91 91 91 89 87 86 87 89 84 83 82 83 60 17 8 24 71 59 22 18 9 8 8 8 8 8 9 9 8 6 5 5 5 5 6 6 7 7 6 10 10 21 25
93 92 92 91 90 89 88 89 90 89 86 82 83 84 35 8 9 15 13 14 11 8 8 6 6 6 9 10 9 6 6 5 5 6 6 6 5 6 8 7 8 13 14 17 23
93 93 92 91 90 89 88 89 91 86 85 83 84 49 13 8 9 9 11 11 9 7 7 6 6 9 10 9 7 6 7 5 6 5 6 5 7 9 9 9 10 14 18 20 21
91 93 92 92 90 88 88 89 87 80 84 84 83 29 8 7 8 9 7 8 8 7 7 6 10 11 9 6 7 7 6 7 6 5 5 6 11 9 8 11 15 17 21 24 27
89 92 92 92 90 88 88 89 79 79 78 80 45 26 8 19 10 7 6 8 8 8 8 8 8 8 7 8 7 6 7 7 7 6 6 6 9 10 8 12 17 20 22 23 29
89 90 92 91 90 88 89 86 81 78 60 29 19 16 8 8 6 7 6 7 8 8 9 9 8 8 7 7 8 8 7 6 8 6 6 7 9 10 8 10 14 18 23 26 29
88 90 92 91 90 88 58 23 21 20 12 8 8 11 7 6 6 6 7 7 6 7 9 8 7 8 7 7 7 7 8 8 7 7 7 8 10 10 10 8 11 15 18 24 26
88 90 91 91 90 88 47 9 12 12 12 7 7 8 7 5 6 5 5 8 7 8 7 7 8 7 7 6 7 7 8 8 8 7 8 8 10 10 10 10 10 12 16 17 19
90 90 91 91 89 49 11 12 11 11 14 7 5 6 6 5 5 5 6 6 6 7 6 8 8 7 7 8 8 8 9 10 10 8 7 8 10 12 12 11 11 12 13 16 20
89 89 90 94 50 10 11 10 10 11 13 8 6 5 5 5 6 4 4 5 6 7 6 6 7 8 8 9 8 10 8 8 8 9 10 9 11 16 13 12 12 13 13 15 18
87 87 90 95 28 11 12 10 10 11 18 7 6 4 4 6 5 5 4 5 7 7 7 8 8 8 9 9 8 9 8 9 9 10 9 9 9 14 13 13 15 14 16 17 18
86 88 90 36 26 12 11 11 12 14 16 8 6 6 6 5 5 5 5 5 6 7 6 7 6 7 8 8 8 8 9 10 9 9 12 10 10 11 12 13 15 14 16 18 20
88 91 79 27 14 11 12 12 15 13 10 8 6 5 5 6 6 6 7 8 8 12 11 8 8 7 8 9 9 10 10 12 13 12 12 13 13 10 12 13 13 16 16 17 18
89 90 57 20 14 12 14 14 20 10 10 8 7 6 7 6 7 7 7 8 7 8 8 10 13 10 9 10 12 11 12 14 23 13 10 14 15 17 12 13 14 15 16 16 19
90 12 12 13 13 15 14 15 12 10 9 9 7 8 8 8 8 8 8 7 7 8 12 12 12 10 9 9 10 14 15 10 13 11 12 10 12 12 13 13 15 15 15 19 24
42 14 8 12 12 14 13 19 10 10 10 9 11 8 10 9 9 9 10 8 9 8 9 11 16 10 10 10 10 13 11 13 14 24 22 12 13 13 19 16 16 17 16 18 24
39 10 14 10 12 12 12 9 9 9 10 10 10 10 10 10 10 9 10 10 9 10 9 9 14 13 13 14 14 14 14 15 12 14 18 19 14 13 15 15 18 18 18 23 24
20 11 12 9 14 10 10 9 37 9 10 9 10 10 11 10 12 11 11 11 11 10 13 12 12 16 14 13 12 12 14 12 17 23 16 17 14 13 14 14 15 16 23 26 28
23 12 8 9 11 8 9 11 10 10 10 10 10 9 10 12 16 13 12 12 12 11 16 14 16 17 17 12 13 17 15 14 16 18 24 22 16 10 12 13 14 23 29 32 34
27 14 14 12 9 17 14 14 13 12 12 12 12 10 12 13 13 16 13 13 12 11 47 26 15 20 16 18 14 18 16 14 14 19 18 15 16 14 13 14 21 29 32 35 38
22 18 25 18 15 16 15 15 13 14 12 13 14 12 12 16 14 15 13 13 12 34 16 15 23 19 15 13 12 12 12 10 13 14 18 15 14 14 16 26 28 28 34 36 38
24 28 23 16 24 26 32 17 16 11 16 15 16 12 12 17 16 17 13 14 16 14 17 15 25 22 19 12 12 13 11 11 11 11 12 11 14 14 26 26 28 31 33 36 41
27 22 23 28 18 17 15 18 17 15 16 14 16 16 16 15 13 13 12 12 14 18 21 22 23 26 22 13 13 17 13 11 12 11 11 16 21 26 32 34 34 35 35 39 40

GFSSW_sfc_rhum_123.txt.gz
RH
89 90 90 89 86 85 87 88 89 88 87 87 84 87 86 88 89 58 22 18 24 66 61 25 20 22 20 16 15 16 27 26 13 12 11 8 9 8 9 32 28 28 31 32 33
88 89 90 88 87 88 90 91 90 90 89 88 87 86 86 87 52 26 28 63 65 72 16 18 19 15 16 15 16 21 24 16 10 9 9 7 8 8 8 28 32 32 30 30 33
87 88 88 89 87 88 91 91 90 90 89 88 86 85 85 82 44 17 55 68 70 60 10 11 12 12 11 11 11 13 18 12 8 8 6 8 6 7 10 13 34 36 33 31 35
86 87 88 88 88 90 90 89 89 90 89 89 84 84 82 64 30 16 65 69 72 24 12 12 15 14 13 13 9 15 10 10 8 7 7 8 7 10 9 11 26 29 29 31 35
87 87 87 88 89 90 90 89 90 91 91 88 83 83 82 39 23 35 66 62 26 16 12 18 17 12 13 10 9 13 10 7 6 7 7 6 8 11 10 10 21 27 28 32 34
88 87 87 87 88 90 91 92 90 92 88 85 84 84 61 31 19 34 20 20 10 13 16 16 12 9 10 10 12 11 8 7 6 7 8 8 7 11 14 13 16 27 30 30 32
88 87 87 87 88 89 90 92 90 89 83 83 84 63 34 22 18 23 14 12 10 9 16 11 8 9 9 14 13 8 10 8 8 8 9 8 13 13 14 17 20 22 25 29 35
88 87 87 86 87 88 90 91 88 82 84 82 83 52 42 15 12 11 12 11 10 11 12 9 9 9 11 15 14 11 12 15 8 7 7 9 24 12 19 22 24 21 26 35 41
88 87 87 86 85 87 88 90 84 80 78 81 78 62 29 20 11 10 11 11 10 9 10 6 10 16 16 18 19 14 15 13 10 8 8 10 18 14 20 24 28 33 36 35 39
88 87 86 85 84 87 86 87 81 78 76 49 34 38 24 10 10 8 8 8 9 10 11 12 13 16 17 20 22 15 13 11 12 8 8 10 16 12 19 25 29 37 40 41 41
88 87 86 86 84 84 78 45 41 44 31 27 22 22 14 9 7 9 8 8 10 12 17 14 19 21 16 13 10 9 10 11 10 9 10 12 16 13 15 23 32 37 39 43 44
87 87 87 87 86 80 88 38 17 16 21 13 13 13 7 6 7 7 8 12 13 13 13 16 18 11 9 9 10 10 11 12 12 9 11 12 13 14 13 21 28 33 36 38 43
87 88 88 89 83 68 32 17 11 13 23 13 10 10 10 8 8 7 8 10 12 13 11 13 10 8 9 9 10 13 14 15 16 11 12 15 16 18 16 16 20 25 30 35 41
86 87 88 93 50 27 23 13 12 14 31 16 11 7 7 8 8 6 6 9 10 10 10 10 8 8 9 9 12 18 10 11 12 16 21 15 23 27 20 20 22 26 30 36 42
86 86 88 90 56 34 19 12 13 16 41 11 8 5 7 8 7 7 6 7 10 9 13 12 11 10 11 11 10 17 10 12 12 16 21 16 21 34 21 24 24 26 25 31 36
84 85 86 53 52 35 23 16 19 32 32 9 7 8 8 8 7 6 7 7 8 9 10 9 9 10 11 9 10 10 13 15 16 19 27 17 20 33 27 22 26 25 25 29 36
84 84 86 40 25 10 15 20 37 34 12 10 9 8 8 8 8 7 8 11 13 20 19 12 9 8 8 13 12 11 22 33 34 36 33 23 24 27 25 22 23 26 28 28 36
82 88 70 39 26 17 22 33 45 18 13 8 7 7 9 8 8 7 10 12 11 12 15 18 21 11 10 14 21 20 34 32 49 39 29 17 24 30 23 22 24 24 25 24 36
85 34 26 25 24 22 32 41 31 19 9 10 9 13 10 7 8 9 10 11 10 10 18 19 21 11 10 10 13 20 25 23 28 38 30 22 26 25 22 23 22 24 24 28 36
73 41 28 11 15 21 34 37 21 11 8 11 16 13 15 11 11 11 15 11 10 10 13 23 25 16 11 11 15 19 17 27 32 41 39 29 34 39 31 32 28 25 25 36 34
66 40 18 10 14 30 34 24 13 8 9 14 15 15 13 13 13 14 13 10 8 11 12 22 24 21 16 21 20 23 25 27 28 33 40 39 41 39 32 28 24 26 44 45 43
48 42 16 14 30 29 24 17 21 9 11 14 15 13 14 15 19 16 16 17 12 12 16 29 23 39 22 17 14 18 21 28 43 42 36 40 35 21 24 21 30 47 48 49 44
56 36 16 17 31 20 16 12 9 10 12 13 13 11 11 16 25 19 16 13 12 20 32 26 34 38 28 23 18 22 22 27 31 40 41 45 39 22 22 24 44 48 50 49 46
54 46 28 23 20 19 19 17 16 9 11 10 17 15 18 20 19 24 18 14 14 17 47 30 30 38 39 34 22 24 18 22 27 40 37 37 32 22 39 42 48 53 54 50 48
56 46 38 38 32 28 32 20 18 15 12 18 20 15 18 28 25 23 17 18 16 40 22 25 39 43 27 18 16 18 17 16 20 26 31 24 24 30 56 54 51 50 50 49 49
55 47 40 39 34 28 30 32 20 16 20 20 20 14 18 30 29 32 28 31 25 31 28 24 38 56 35 21 20 21 18 17 14 14 16 17 20 51 46 44 44 43 42 45 64
48 41 45 48 30 24 24 24 16 15 15 12 17 22 30 27 25 25 21 23 30 32 33 36 40 55 57 33 29 34 25 19 18 18 20 36 54 48 48 46 58 64 61 64 63